• Em Portugal
  • Lista de países
  • Para 7 dias
  • Temperatura da água
  • Mapas de satélite
  • Mapa do tempo
  • Widgets de tempo
  • user-avatar
    Iniciar Sessão

    Previsão horária em Telšiai

    Hoje, 24 Fevereiro, Sábado

    Tempo Temperatura Precipitação Vento Pressão Humidade
    00:00 -14°C° 0,3 mm 5 m/s 756 mmHg 91%
    01:00 -14°C° 0 mm 5 m/s 756 mmHg 90%
    02:00 -15°C° 0 mm 5 m/s 757 mmHg 90%
    03:00 -17°C° 0 mm 5 m/s 757 mmHg 90%
    04:00 -16°C° 0 mm 4 m/s 758 mmHg 90%
    05:00 -17°C° 0 mm 4 m/s 759 mmHg 91%
    06:00 -17°C° 0 mm 4 m/s 759 mmHg 91%
    07:00 -18°C° 0 mm 4 m/s 760 mmHg 92%
    08:00 -17°C° 0 mm 4 m/s 760 mmHg 89%
    09:00 -16°C° 0 mm 4 m/s 761 mmHg 85%
    10:00 -15°C° 0 mm 4 m/s 761 mmHg 82%
    11:00 -14°C° 0 mm 4 m/s 761 mmHg 81%
    12:00 -14°C° 0 mm 4 m/s 761 mmHg 79%
    13:00 -12°C° 0 mm 4 m/s 761 mmHg 77%
    14:00 -12°C° 0 mm 4 m/s 761 mmHg 79%
    15:00 -12°C° 0 mm 4 m/s 761 mmHg 80%
    16:00 -14°C° 0 mm 4 m/s 761 mmHg 81%
    17:00 -14°C° 0 mm 3 m/s 761 mmHg 85%
    18:00 -14°C° 0 mm 3 m/s 761 mmHg 88%
    19:00 -14°C° 0 mm 2 m/s 761 mmHg 92%
    20:00 -15°C° 0 mm 2 m/s 762 mmHg 93%
    21:00 -15°C° 0 mm 2 m/s 762 mmHg 94%
    22:00 -15°C° 0 mm 2 m/s 762 mmHg 95%
    23:00 -16°C° 0 mm 2 m/s 762 mmHg 95%

    Amanhã, 25 Fevereiro, Domingo

    Tempo Temperatura Precipitação Vento Pressão Humidade
    00:00 -16°C° 0 mm 2 m/s 762 mmHg 95%
    01:00 -16°C° 0 mm 2 m/s 762 mmHg 95%
    02:00 -16°C° 0 mm 2 m/s 762 mmHg 96%
    03:00 -17°C° 0 mm 2 m/s 762 mmHg 96%
    04:00 -17°C° 0 mm 2 m/s 762 mmHg 96%
    05:00 -17°C° 0 mm 2 m/s 762 mmHg 96%
    06:00 -17°C° 0 mm 2 m/s 762 mmHg 95%
    07:00 -19°C° 0 mm 3 m/s 762 mmHg 95%
    08:00 -18°C° 0 mm 3 m/s 762 mmHg 92%
    09:00 -17°C° 0 mm 3 m/s 762 mmHg 88%
    10:00 -17°C° 0 mm 4 m/s 762 mmHg 85%
    11:00 -16°C° 0 mm 4 m/s 762 mmHg 83%
    12:00 -16°C° 0 mm 4 m/s 762 mmHg 81%
    13:00 -15°C° 0 mm 4 m/s 762 mmHg 80%
    14:00 -15°C° 0 mm 4 m/s 762 mmHg 81%
    15:00 -15°C° 0 mm 4 m/s 761 mmHg 82%
    16:00 -14°C° 0 mm 3 m/s 761 mmHg 83%
    17:00 -14°C° 0 mm 3 m/s 761 mmHg 85%
    18:00 -15°C° 0 mm 3 m/s 761 mmHg 88%
    19:00 -15°C° 0 mm 2 m/s 761 mmHg 90%
    20:00 -15°C° 0 mm 2 m/s 761 mmHg 91%
    21:00 -15°C° 0 mm 2 m/s 761 mmHg 93%
    22:00 -16°C° 0 mm 2 m/s 761 mmHg 94%
    23:00 -14°C° 0 mm 1 m/s 761 mmHg 94%

    Depois de amanhã, 26 Fevereiro, Segunda-feira

    Tempo Temperatura Precipitação Vento Pressão Humidade
    00:00 -14°C° 0 mm 1 m/s 761 mmHg 95%
    01:00 -14°C° 0 mm 1 m/s 761 mmHg 95%
    02:00 -14°C° 0 mm 1 m/s 761 mmHg 95%
    03:00 -14°C° 0 mm 1 m/s 761 mmHg 96%
    04:00 -14°C° 0 mm 1 m/s 760 mmHg 96%
    05:00 -14°C° 0 mm 1 m/s 760 mmHg 96%
    06:00 -13°C° 0 mm 1 m/s 760 mmHg 97%
    07:00 -13°C° 0 mm 1 m/s 760 mmHg 97%
    08:00 -14°C° 0 mm 2 m/s 760 mmHg 92%
    09:00 -12°C° 0 mm 2 m/s 760 mmHg 88%
    10:00 -12°C° 0 mm 3 m/s 760 mmHg 84%
    11:00 -10°C° 0,1 mm 3 m/s 759 mmHg 80%
    12:00 -10°C° 0,1 mm 3 m/s 759 mmHg 76%
    13:00 -9°C° 0,1 mm 3 m/s 759 mmHg 73%
    14:00 -10°C° 0,1 mm 3 m/s 759 mmHg 75%
    15:00 -9°C° 0,1 mm 2 m/s 758 mmHg 78%
    16:00 -9°C° 0,1 mm 2 m/s 758 mmHg 80%
    17:00 -10°C° 0,1 mm 2 m/s 758 mmHg 84%
    18:00 -10°C° 0,1 mm 1 m/s 758 mmHg 87%
    19:00 -11°C° 0,1 mm 1 m/s 757 mmHg 90%
    20:00 -11°C° 0,1 mm 1 m/s 757 mmHg 91%
    21:00 -13°C° 0,1 mm 2 m/s 757 mmHg 92%
    22:00 -13°C° 0,1 mm 2 m/s 757 mmHg 92%
    23:00 -14°C° 0,1 mm 3 m/s 757 mmHg 92%

    27 Fevereiro, Terça-feira

    Tempo Temperatura Precipitação Vento Pressão Humidade
    00:00 -14°C° 0,1 mm 3 m/s 757 mmHg 92%
    01:00 -16°C° 0,1 mm 4 m/s 758 mmHg 92%
    02:00 -17°C° 0,1 mm 4 m/s 758 mmHg 90%
    03:00 -18°C° 0,1 mm 5 m/s 758 mmHg 89%
    04:00 -19°C° 0,1 mm 5 m/s 758 mmHg 88%
    05:00 -20°C° 0 mm 5 m/s 758 mmHg 88%
    06:00 -21°C° 0 mm 5 m/s 758 mmHg 88%
    07:00 -22°C° 0 mm 5 m/s 759 mmHg 88%
    08:00 -22°C° 0 mm 5 m/s 759 mmHg 87%
    09:00 -21°C° 0 mm 5 m/s 760 mmHg 86%
    10:00 -21°C° 0 mm 5 m/s 760 mmHg 84%
    11:00 -20°C° 0 mm 5 m/s 760 mmHg 83%
    12:00 -20°C° 0 mm 5 m/s 761 mmHg 82%
    13:00 -19°C° 0 mm 5 m/s 761 mmHg 81%
    14:00 -19°C° 0 mm 5 m/s 761 mmHg 82%
    15:00 -19°C° 0 mm 5 m/s 761 mmHg 82%
    16:00 -19°C° 0 mm 5 m/s 761 mmHg 83%
    17:00 -20°C° 0 mm 5 m/s 762 mmHg 84%
    18:00 -20°C° 0 mm 5 m/s 762 mmHg 86%
    19:00 -21°C° 0 mm 5 m/s 762 mmHg 87%
    20:00 -22°C° 0 mm 5 m/s 762 mmHg 88%
    21:00 -22°C° 0 mm 5 m/s 763 mmHg 88%
    22:00 -24°C° 0 mm 5 m/s 763 mmHg 89%
    23:00 -24°C° 0 mm 5 m/s 763 mmHg 90%

    28 Fevereiro, Quarta-feira

    Tempo Temperatura Precipitação Vento Pressão Humidade
    00:00 -24°C° 0 mm 5 m/s 763 mmHg 90%
    01:00 -25°C° 0 mm 5 m/s 763 mmHg 91%
    02:00 -25°C° 0 mm 5 m/s 763 mmHg 91%
    03:00 -25°C° 0 mm 5 m/s 763 mmHg 91%
    04:00 -26°C° 0 mm 5 m/s 763 mmHg 92%
    05:00 -26°C° 0 mm 5 m/s 763 mmHg 91%
    06:00 -26°C° 0 mm 5 m/s 762 mmHg 91%
    07:00 -26°C° 0 mm 5 m/s 762 mmHg 91%
    08:00 -25°C° 0 mm 5 m/s 762 mmHg 89%
    09:00 -24°C° 0 mm 6 m/s 762 mmHg 86%
    10:00 -22°C° 0 mm 6 m/s 762 mmHg 84%
    11:00 -21°C° 0 mm 6 m/s 762 mmHg 83%
    12:00 -20°C° 0 mm 6 m/s 762 mmHg 82%
    13:00 -18°C° 0 mm 6 m/s 761 mmHg 80%
    14:00 -18°C° 0 mm 6 m/s 761 mmHg 81%
    15:00 -18°C° 0 mm 6 m/s 760 mmHg 81%
    16:00 -18°C° 0 mm 6 m/s 760 mmHg 82%
    17:00 -18°C° 0 mm 6 m/s 760 mmHg 83%
    18:00 -20°C° 0 mm 6 m/s 760 mmHg 84%
    19:00 -19°C° 0 mm 5 m/s 759 mmHg 85%
    20:00 -19°C° 0 mm 5 m/s 759 mmHg 86%
    21:00 -19°C° 0 mm 5 m/s 759 mmHg 87%
    22:00 -19°C° 0 mm 5 m/s 759 mmHg 87%
    23:00 -20°C° 0,1 mm 5 m/s 758 mmHg 88%

    1 Março, Quinta-feira

    Tempo Temperatura Precipitação Vento Pressão Humidade
    00:00 -19°C° 0,1 mm 4 m/s 758 mmHg 89%
    01:00 -19°C° 0,1 mm 4 m/s 758 mmHg 90%
    02:00 -19°C° 0,1 mm 4 m/s 757 mmHg 91%
    03:00 -19°C° 0,1 mm 4 m/s 757 mmHg 91%
    04:00 -19°C° 0,1 mm 4 m/s 756 mmHg 92%
    05:00 -18°C° 0,1 mm 3 m/s 756 mmHg 92%
    06:00 -18°C° 0,1 mm 3 m/s 756 mmHg 92%
    07:00 -19°C° 0,1 mm 3 m/s 755 mmHg 92%
    08:00 -18°C° 0 mm 3 m/s 755 mmHg 90%
    09:00 -17°C° 0 mm 3 m/s 755 mmHg 87%
    10:00 -17°C° 0 mm 3 m/s 754 mmHg 85%
    11:00 -16°C° 0 mm 3 m/s 754 mmHg 83%
    12:00 -14°C° 0 mm 2 m/s 754 mmHg 81%
    13:00 -14°C° 0 mm 2 m/s 753 mmHg 79%
    14:00 -14°C° 0 mm 2 m/s 753 mmHg 81%
    15:00 -14°C° 0 mm 2 m/s 752 mmHg 82%
    16:00 -14°C° 0 mm 2 m/s 752 mmHg 83%
    17:00 -15°C° 0 mm 2 m/s 752 mmHg 86%
    18:00 -14°C° 0 mm 1 m/s 752 mmHg 89%
    19:00 -15°C° 0 mm 1 m/s 751 mmHg 92%
    20:00 -15°C° 0 mm 1 m/s 751 mmHg 93%
    21:00 -16°C° 0 mm 1 m/s 751 mmHg 94%
    22:00 -16°C° 0 mm 1 m/s 750 mmHg 94%
    23:00 -16°C° 0 mm 1 m/s 750 mmHg 94%
    Mostrar mais